Total_Precipitation_Accumulation
0.99 0.97 0.81 0.75 0.75 0.83 0.98 1.13 1.08 1.21 1.30 1.17 0.90 0.77 0.74 0.63 0.47 0.35 0.28 0.35 0.58 0.63 0.55 0.51 0.51 0.51 0.53 0.49 0.47 0.51 0.52 0.53 0.48 0.38 0.25 0.16 0.24 0.27 0.18 0.10 0.03 0.01 0.01
1.04 0.99 0.95 0.94 0.94 0.90 0.95 1.19 1.23 1.20 1.08 0.90 0.63 0.51 0.50 0.51 0.44 0.34 0.24 0.31 0.43 0.41 0.39 0.45 0.51 0.58 0.61 0.57 0.48 0.47 0.45 0.43 0.40 0.35 0.30 0.27 0.18 0.20 0.25 0.19 0.10 0.04 0.01
0.88 0.90 0.88 0.84 0.86 0.85 0.83 0.89 0.98 0.99 0.82 0.64 0.50 0.44 0.39 0.39 0.37 0.38 0.30 0.28 0.32 0.35 0.27 0.26 0.31 0.42 0.55 0.63 0.59 0.49 0.39 0.34 0.30 0.28 0.24 0.20 0.16 0.11 0.09 0.13 0.17 0.14 0.05
0.54 0.56 0.54 0.51 0.54 0.52 0.53 0.58 0.62 0.64 0.60 0.56 0.56 0.53 0.47 0.47 0.40 0.43 0.41 0.35 0.32 0.33 0.37 0.27 0.23 0.24 0.32 0.44 0.50 0.54 0.46 0.35 0.29 0.28 0.24 0.17 0.12 0.10 0.08 0.08 0.13 0.18 0.13
0.37 0.40 0.38 0.36 0.35 0.33 0.33 0.34 0.39 0.43 0.44 0.44 0.41 0.40 0.37 0.34 0.30 0.28 0.30 0.22 0.19 0.18 0.26 0.33 0.26 0.23 0.24 0.32 0.47 0.61 0.60 0.47 0.35 0.30 0.34 0.27 0.18 0.11 0.09 0.09 0.08 0.12 0.13
0.31 0.34 0.31 0.29 0.27 0.24 0.25 0.29 0.30 0.31 0.30 0.30 0.21 0.19 0.22 0.17 0.16 0.13 0.13 0.10 0.10 0.10 0.14 0.23 0.21 0.16 0.18 0.27 0.38 0.50 0.56 0.53 0.41 0.34 0.41 0.45 0.40 0.27 0.18 0.14 0.08 0.08 0.09
0.27 0.33 0.27 0.29 0.26 0.21 0.20 0.21 0.21 0.21 0.19 0.17 0.16 0.12 0.09 0.08 0.08 0.06 0.05 0.07 0.07 0.08 0.09 0.13 0.12 0.11 0.12 0.18 0.20 0.27 0.37 0.47 0.47 0.37 0.38 0.45 0.46 0.36 0.22 0.21 0.22 0.13 0.07
0.17 0.23 0.30 0.24 0.23 0.22 0.20 0.17 0.17 0.16 0.14 0.13 0.13 0.10 0.06 0.05 0.05 0.02 0.06 0.06 0.06 0.10 0.09 0.07 0.05 0.07 0.09 0.09 0.06 0.08 0.17 0.28 0.36 0.35 0.33 0.37 0.45 0.39 0.26 0.21 0.24 0.25 0.17
0.09 0.14 0.21 0.23 0.25 0.21 0.23 0.24 0.20 0.17 0.12 0.09 0.08 0.08 0.06 0.04 0.03 0.02 0.03 0.03 0.04 0.08 0.08 0.07 0.07 0.09 0.12 0.15 0.15 0.08 0.07 0.09 0.20 0.32 0.34 0.36 0.43 0.45 0.42 0.37 0.30 0.23 0.20
0.07 0.08 0.10 0.15 0.22 0.24 0.30 0.21 0.20 0.19 0.15 0.09 0.07 0.06 0.04 0.04 0.05 0.05 0.04 0.01 0.05 0.09 0.07 0.04 0.07 0.10 0.10 0.09 0.10 0.06 0.03 0.05 0.15 0.27 0.33 0.39 0.44 0.53 0.56 0.51 0.46 0.39 0.30
0.11 0.12 0.12 0.11 0.12 0.18 0.26 0.28 0.31 0.24 0.21 0.14 0.09 0.07 0.07 0.04 0.03 0.04 0.06 0.05 0.05 0.03 0.03 0.05 0.09 0.15 0.10 0.05 0.10 0.09 0.09 0.13 0.18 0.23 0.27 0.34 0.40 0.44 0.49 0.54 0.65 0.71 0.66
0.19 0.19 0.19 0.20 0.19 0.17 0.17 0.19 0.23 0.27 0.28 0.25 0.15 0.08 0.08 0.06 0.03 0.03 0.03 0.05 0.09 0.04 0.04 0.06 0.12 0.18 0.14 0.14 0.17 0.15 0.14 0.16 0.22 0.30 0.31 0.31 0.30 0.29 0.27 0.31 0.45 0.67 0.83
0.23 0.23 0.22 0.24 0.27 0.27 0.24 0.19 0.15 0.20 0.27 0.28 0.23 0.17 0.09 0.05 0.04 0.05 0.04 0.03 0.05 0.04 0.04 0.05 0.11 0.13 0.10 0.13 0.18 0.22 0.19 0.18 0.19 0.24 0.29 0.31 0.31 0.32 0.28 0.28 0.32 0.44 0.61
0.27 0.23 0.21 0.22 0.25 0.29 0.31 0.28 0.22 0.20 0.22 0.25 0.27 0.28 0.21 0.08 0.05 0.04 0.05 0.05 0.05 0.05 0.05 0.06 0.15 0.15 0.11 0.13 0.14 0.24 0.21 0.18 0.13 0.13 0.16 0.16 0.19 0.24 0.27 0.29 0.30 0.34 0.43
0.30 0.24 0.20 0.19 0.21 0.25 0.29 0.31 0.29 0.29 0.26 0.23 0.27 0.33 0.30 0.19 0.11 0.06 0.06 0.07 0.10 0.10 0.09 0.11 0.19 0.21 0.14 0.12 0.11 0.15 0.20 0.17 0.13 0.10 0.08 0.08 0.09 0.09 0.11 0.14 0.19 0.24 0.28
0.14 0.15 0.15 0.15 0.16 0.18 0.22 0.27 0.32 0.38 0.40 0.36 0.32 0.34 0.35 0.32 0.27 0.19 0.13 0.10 0.10 0.11 0.14 0.13 0.21 0.27 0.26 0.15 0.15 0.20 0.15 0.12 0.11 0.11 0.08 0.07 0.08 0.08 0.07 0.07 0.11 0.15 0.17
0.02 0.03 0.05 0.07 0.09 0.10 0.13 0.18 0.25 0.36 0.49 0.57 0.55 0.48 0.42 0.42 0.39 0.32 0.26 0.19 0.14 0.15 0.19 0.24 0.28 0.32 0.32 0.26 0.24 0.21 0.12 0.09 0.09 0.12 0.10 0.08 0.07 0.07 0.08 0.06 0.05 0.06 0.09
0.00 0.01 0.01 0.02 0.02 0.03 0.05 0.09 0.15 0.22 0.33 0.49 0.65 0.68 0.60 0.52 0.46 0.38 0.32 0.28 0.24 0.23 0.26 0.32 0.35 0.35 0.30 0.29 0.27 0.17 0.11 0.08 0.07 0.09 0.09 0.08 0.07 0.06 0.07 0.07 0.06 0.04 0.04
0.01 0.01 0.01 0.01 0.01 0.02 0.04 0.05 0.06 0.08 0.14 0.23 0.39 0.59 0.69 0.66 0.54 0.46 0.38 0.33 0.30 0.28 0.27 0.29 0.35 0.40 0.39 0.31 0.22 0.12 0.09 0.08 0.05 0.07 0.08 0.08 0.07 0.05 0.05 0.04 0.04 0.03 0.02
0.02 0.02 0.02 0.02 0.03 0.03 0.04 0.06 0.07 0.07 0.07 0.09 0.15 0.28 0.47 0.63 0.62 0.54 0.46 0.39 0.37 0.36 0.33 0.32 0.36 0.41 0.44 0.39 0.24 0.11 0.10 0.09 0.06 0.05 0.05 0.05 0.05 0.04 0.03 0.02 0.01 0.02 0.01
0.03 0.04 0.05 0.06 0.06 0.06 0.04 0.06 0.11 0.11 0.13 0.12 0.11 0.12 0.18 0.32 0.48 0.55 0.51 0.45 0.41 0.39 0.39 0.36 0.38 0.43 0.46 0.43 0.29 0.15 0.08 0.07 0.07 0.05 0.03 0.03 0.02 0.02 0.01 0.01 0.01 0.01 0.01
0.08 0.10 0.10 0.11 0.11 0.07 0.06 0.07 0.10 0.14 0.21 0.25 0.22 0.18 0.14 0.13 0.22 0.34 0.44 0.47 0.45 0.40 0.39 0.39 0.41 0.47 0.50 0.44 0.36 0.19 0.10 0.06 0.08 0.07 0.03 0.03 0.02 0.01 0.01 0.00 0.01 0.01 0.01
0.13 0.16 0.15 0.15 0.15 0.14 0.12 0.10 0.07 0.14 0.23 0.30 0.34 0.31 0.19 0.10 0.12 0.16 0.24 0.33 0.37 0.34 0.32 0.35 0.39 0.48 0.62 0.63 0.51 0.28 0.15 0.13 0.11 0.10 0.05 0.03 0.02 0.01 0.00 0.00 0.01 0.00 0.00
0.20 0.20 0.19 0.19 0.20 0.18 0.16 0.12 0.09 0.16 0.23 0.24 0.30 0.35 0.27 0.21 0.18 0.18 0.16 0.17 0.21 0.23 0.22 0.22 0.28 0.41 0.58 0.72 0.66 0.50 0.36 0.28 0.24 0.17 0.08 0.05 0.02 0.01 0.01 0.00 0.00 0.00 0.00
0.22 0.21 0.20 0.22 0.25 0.24 0.21 0.14 0.11 0.22 0.28 0.25 0.25 0.28 0.29 0.25 0.19 0.14 0.15 0.13 0.13 0.15 0.18 0.19 0.22 0.35 0.47 0.59 0.66 0.57 0.39 0.28 0.26 0.19 0.07 0.04 0.03 0.02 0.01 0.00 0.00 0.00 0.00
0.25 0.23 0.21 0.23 0.27 0.29 0.25 0.14 0.11 0.22 0.30 0.29 0.30 0.33 0.35 0.32 0.22 0.12 0.13 0.14 0.11 0.11 0.12 0.14 0.16 0.22 0.30 0.36 0.46 0.46 0.31 0.19 0.17 0.14 0.06 0.02 0.02 0.02 0.02 0.01 0.00 0.00 0.00